www.pogodaiklimat.ru

Погода и климат >> Архив погоды >> Россия >> Иркутская область >> Иркутск


АРХИВ ПОГОДЫ в Иркутске

Время (UTC), дата Ветер
(напр.,м/с)
 
Видим.   Явления Облачность Т
(С)
Тd
(С)
f
(%)
Тe
(С)
Тes
(С)
Комфортность P
(гПа)
Po
(гПа)
Тmin
(С)
Tmax
(С)
R
(мм)
R24
(мм)
S
(см)
15 11.09 З 2 н/о слаб. ливневой дождь 10/10 600 м
[Cb cap]
+9.1 +8.1 93 +7 +7 по сезону 1012.6 957.2
18 11.09 штиль 0 н/о в посл. час ливневой дождь 10/8 600 м
[Cb cap Ac und]
+8.1 +7.1 93 +7 +7 по сезону 1012.4 956.9
21 11.09 штиль 0 н/о слаб. ливневой дождь 10/10 600 м
[Cb cap]
+7.7 +6.7 93 +7 +7 по сезону 1012.9 957.2
00 12.09 штиль 0 50 км {ливн. осадки} 8/4 600 м
[Cb cap Ac trans]
+7.5 +6.8 95 +6 +7 по сезону 1013.2 957.4 +5.9 3
03 12.09 ЮВ 1 20 км 3/1 600 м
[Cb cap Ac trans]
+13.9 +7.5 65 +14 +21 тепло 1012.7 958.2
06 12.09 С 1 50 км 6/6 600 м
[Cb cap]
+17.3 +6.9 50 +18 +22 тепло 1011.1 957.2
09 12.09 С 1 50 км 6/3 600 м
[Cb cap Ci fib]
+16.9 +5.0 45 +18 +20 тепло 1010.1 956.2
12 12.09 СЗ 4
{14}
10 км слаб. ливневой дождь 10/10 600 м
[Cb cap]
+7.8 +5.8 87 +4 +4 холодно 1016.3 960.4 +18.1 2
15 12.09 З 1
{10}
н/о слаб. ливневой дождь 10/10 600 м
[Cb cap]
+6.1 +4.9 92 +5 +5 прохладно 1019.8 963.4
18 12.09 штиль 0 н/о {ливн. осадки} 10/9 600 м
[Cb cap Ci fib]
+5.4 +4.3 93 +4 +4 по сезону 1020.0 963.4
21 12.09 штиль 0 н/о 6/0
[Ci fib]
+3.8 +2.9 94 +3 +3 по сезону 1019.1 962.3
00 13.09 ЮВ 2 50 км 10/4 600 м
[Cb cap Ac trans Ci fib]
+5.1 +4.1 93 +2 +3 прохладно 1018.2 961.6 +3.2 5
03 13.09 ЮВ 2 50 км 9/5 600 м
[Cb cap Ac trans Ci fib]
+9.9 +5.4 74 +8 +10 по сезону 1015.9 960.4
06 13.09 С 1 50 км 9/5 600 м
[Cb cap Ac trans Ci fib]
+15.7 +2.3 40 +17 +20 тепло 1012.4 958.1
09 13.09 В 1 50 км 10/8 600 м
[Cb cap Ac trans Ci fib]
+13.9 +2.0 44 +15 +15 тепло 1011.1 956.6
12 13.09 ЮВ 1 50 км 9/9 600 м
[Cb cap]
+11.3 +5.2 66 +11 +11 по сезону 1010.4 955.5 +16.3
15 13.09 СВ 1 н/о 3/3 1000 м
[Sc diur, vesp]
+9.0 +5.4 78 +8 +8 по сезону 1011.0 955.6
18 13.09 штиль 0 н/о 4/0
[Ci fib]
+5.4 +4.3 93 +4 +4 по сезону 1011.2 955.2
21 13.09 штиль 0 н/о 4/0
[Ci fib]
+3.5 +2.8 95 +2 +2 прохладно 1010.9 954.4
00 14.09 ЮВ 1 4000 м дымка 10/5 300 м
[St Ac trans Ci fib]
+5.9 +5.0 94 +5 +5 по сезону 1010.3 954.4 +2.9
03 14.09 СЗ 3 20 км 10/10 600 м
[Cb cap]
+5.8 +2.9 82 +3 +3 холодно 1014.6 958.4
06 14.09 СЗ 1 20 км в посл. час ливневой дождь 9/9 600 м
[Cb cap]
+7.2 +3.4 77 +6 +7 очень
холодно
1015.6 959.6
09 14.09 СЗ 2 20 км 10/10 600 м
[Cb cap]
+7.3 -0.1 59 +6 +6 холодно 1017.2 961.1
12 14.09 СЗ 2 50 км 10/8 600 м
[Cb cap Ac und]
+6.1 -0.2 64 +4 +4 холодно 1020.2 963.7 +7.8 0.5
15 14.09 СЗ 1 н/о 10/10 600 м
[Cb cap]
+4.9 -1.8 62 +4 +4 прохладно 1022.8 965.9
18 14.09 штиль 0 н/о 10/10 600 м
[Cb cap]
+3.4 -0.9 73 +3 +3 по сезону 1023.1 965.9
21 14.09 В 2 н/о 10/0
[Ci fib]
+0.8 -1.4 85 -3 -3 очень
холодно
1022.1 964.4
00 15.09 В 1 50 км 10/0
[Ci fib]
+1.0 -1.9 81 -1 -0 холодно 1020.8 963.2 -0.2
03 15.09 ЮВ 3 50 км 10/0
[Ac trans Ci fib]
+7.7 +0.3 59 +5 +9 прохладно 1018.1 962.0
06 15.09 С 1 50 км 10/4 600 м
[Cb cap Ac trans Ci fib]
+11.8 +1.9 51 +12 +15 по сезону 1015.3 960.2
09 15.09 ЮВ 2 50 км 10/3 600 м
[Cb cap Ac trans Ci fib]
+13.7 +1.7 44 +13 +14 по сезону 1012.9 958.3
12 15.09 В 2 50 км 10/6 600 м
[Cb cap Ac und]
+10.2 +1.9 56 +9 +9 по сезону 1013.6 958.3 +14.5
15 15.09 СВ 1 н/о 10/5 600 м
[Cb cap Ac und]
+8.4 +3.4 71 +8 +8 по сезону 1014.3 958.6
18 15.09 СВ 1 н/о 10/0
[Ac und]
+7.1 +3.7 79 +6 +6 по сезону 1014.3 958.4
21 15.09 штиль 0 н/о 10/5 600 м
[Cb cap Ac und]
+6.1 +4.0 86 +5 +5 по сезону 1014.8 958.6
00 16.09 штиль 0 50 км 10/10 600 м
[Cb cap]
+7.3 +4.3 81 +6 +6 по сезону 1015.5 959.5 +5.2
03 16.09 ЮЗ 1 20 км {ливн. осадки} 10/6 600 м
[Cb cap Cs]
+12.1 +6.1 67 +12 +15 тепло 1015.0 960.0
06 16.09 З 3 20 км слаб. ливневой дождь 10/10 600 м
[Cb cap]
+9.3 +7.2 87 +7 +7 холодно 1017.7 962.1
09 16.09 СЗ 3 50 км {ливн. осадки} 10/10 600 м
[Cb cap]
+10.3 +4.8 69 +8 +8 прохладно 1019.0 963.4
12 16.09 СЗ 2 50 км {ливн. осадки} 10/8 600 м
[Cb cap Ci fib]
+8.6 +4.4 75 +7 +7 по сезону 1021.7 965.7 +13.6 2
15 16.09 СЗ 1 н/о 9/4 600 м
[Cb cap Ci fib]
+6.1 +3.7 85 +5 +5 по сезону 1025.6 968.9
18 16.09 штиль 0 н/о 8/0
[Ci fib]
+4.2 +3.1 93 +3 +3 по сезону 1027.0 969.8
21 16.09 СВ 1 н/о 10/9 1000 м
[Sc Ci fib]
+4.0 +2.4 89 +3 +3 по сезону 1027.5 970.2
00 17.09 В 1 50 км 10/5 600 м
[Cb cap Ac trans Ci fib]
+4.9 +3.1 88 +4 +4 по сезону 1027.9 970.8 +3.8
03 17.09 ЮВ 2 50 км {ливн. осадки} 8/3 600 м
[Cb cap Ac trans]
+10.0 +4.2 67 +9 +11 по сезону 1026.8 970.7
06 17.09 В 1 50 км {ливн. осадки} ясно +16.0 +2.7 41 +17 +26 тепло 1023.8 969.0
09 17.09 ЮВ 1 50 км ясно +16.8 +2.8 39 +18 +20 тепло 1021.8 967.2
12 17.09 ЮВ 2 50 км ясно +12.5 +7.5 72 +12 +12 тепло 1021.8 966.5 +17.8 0.0
15 17.09 ЮВ 1 н/о ясно +9.2 +5.0 75 +9 +9 по сезону 1022.5 966.5
18 17.09 В 1 н/о 10/0
[Cs]
+5.8 +4.3 90 +5 +5 по сезону 1021.8 965.3
21 17.09 В 2 н/о 8/0
[Ac trans Ci fib]
+5.2 +3.7 90 +3 +3 по сезону 1020.5 963.9
00 18.09 ЮВ 2 50 км 10/0
[Ac trans Ci fib]
+7.5 +5.3 86 +5 +6 по сезону 1020.2 964.0 +4.7
03 18.09 ЮВ 1 50 км 10/0
[Ac trans Cs]
+13.7 +7.0 64 +14 +19 тепло 1019.2 964.3
06 18.09 СЗ 2 50 км 10/0
[Cs]
+20.1 +5.3 38 +21 +28 комфорт 1017.6 963.9
09 18.09 З 1 50 км 4/0
[Ci fib]
+19.9 +7.7 45 +22 +24 комфорт 1016.4 962.8
12 18.09 З 1 50 км ливневой дождь 10/10 600 м
[Cb cap]
+14.5 +10.4 76 +15 +15 тепло 1019.0 964.3 +21.2 0.3

 

Местоположение метеостанции Иркутск (Иркутская область, Россия): широта 52.27 долгота 104.30 высота над уровнем моря 469 м.

В архиве по умолчанию представлена погода в Иркутске за последнюю неделю. Архивные данные за месяц целиком и за предыдущие месяцы, начиная с января 2011 года, Вы можете получить, выбрав интересующий диапазон дат из раскрывающегося списка и нажав кнопку "Ввод!".


*Определитесь, кто Вы:
робот инопланетянин человек

Внимание! Время в таблицах - всемирное. Для получения местного времени необходимо прибавить поправку, которая равна 8 ч.

Смотрите также архив погоды в соседних городах и на ближайших метеорологических станциях:

Погода в Хомутово (Иркутская область, Россия) (21 км)
Погода в Ангарск (Иркутская область, Россия) (41 км)
Погода в Усть-Ордынском (Иркутская область, Россия) (66 км)
Погода в Байкальске (Иркутская область, Россия) (70 км)
Погода в Култуке (Иркутская область, Россия) (74 км)
Погода в Большом Голоустном (Иркутская область, Россия) (80 км)
Погода в Хамар-Дабан (Иркутская область, Россия) (95 км)
Погода в Танхое (Бурятия, Россия) (97 км)
Погода в Дабадах (Иркутская область, Россия) (111 км)
Погода в Бабушкине (Бурятия, Россия) (121 км)

Пояснения к столбцам:

Ветер - указаны скорость ветра в м/с - средняя за 10 мин, порывы в срок и между сроками (в фигурных скобках) и направление, откуда дует ветер: С - северный, СВ - северо-восточный, В - восточный, ЮВ - юго-восточный, Ю - южный, ЮЗ - юго-западный, З - западный, СЗ - северо-западный.
Видимость - горизонтальная дальность видимости в метрах или километрах. При видимости от 1 до 10 км при отсутствии осадков обычно наблюдается дымка, при ухудшении видимости до 1 км и менее - туман. В сухую погоду видимость может ухудшаться дымом, пылью или мглою.
Явления - указаны атмосферные явления, наблюдавшиеся в срок или в последний час перед сроком; фигурными скобками обозначены явления, наблюдавшиеся между сроками (за 1-3 часа до срока); квадратными скобками обозначены град или гололедные отложения с указанием их диаметра в мм.
Облачность - указаны через наклонную черту общая и нижняя облачность в баллах и высота нижней границы облаков в метрах; квадратными скобками обозначены формы облаков: Ci - перистые, Cs - перисто-слоистые, Cc - перисто-кучевые, Ac - высококучевые, As - высокослоистые, Sc - слоисто-кучевые, Ns - слоисто-дождевые, Cu - кучевые, Cb - кучево-дождевые. Подробнее классификацию облаков см. в Атласе облаков (PDF).
T - Температура воздуха - температура, измеренная на высоте 2 м над землей.
Td - Температура точки росы - температура, при понижении до которой содержащийся в воздухе водяной пар достигнет насыщения.
f - Относительная влажность воздуха - влажноcть воздуха, измеренная на высоте 2 м над землей.
Te - Эффективная температура - температура, которую ощущает одетый по сезону человек в тени. Характеристика душности погоды. При расчете учитывается влияние влажности воздуха и скорости ветра на теплоощущения человека.
Tes - Эффективная температура на солнце - температура, которую ощущает человек, с поправкой на солнечный нагрев. Характеристика знойности погоды. Зависит от высоты солнца над горизонтом, облачности и скорости ветра. Ночью, в пасмурную погоду, а также при ветре 12 м/с и более поправка равна нулю.
P - Атмосферное давление - приведенное к уровню моря атмосферное давление.
Po - Атмосферное давление - измеренное на уровне метеостанции атмосферное давление.
Tmin - Минимальная температура - минимум температуры воздуха на высоте 2 м над землей.
Tmax - Максимальная температура - максимум температуры воздуха на высоте 2 м над землей.
R - Количество осадков - Количество выпавших осадков за период времени, мм. При наведении курсора мыши на число - период времени, за который выпало указанное количество осадков.
R24 - Количество осадков - Количество выпавших осадков за 24 часа, мм.
S - Снежный покров - Высота снежного покрова, см. При наведении курсора мыши на число - состояние снежного покрова и степень покрытия местности в баллах.